Location: Newark
(48.1500°N, 13.1167°E)
Time: 13:49:28
(UTC+00:00)

N. Korean satellite - Pass Details

Date: 28 September 2021
Orbit: 450 x 495 km, 97.3° (Epoch: 23 October)

Event Time Altitude Azimuth Distance (km) Brightness Sun altitude
Rises 03:40:34 0° 25° (NNE) 2,537 10.8 -14.4°
Reaches altitude 10° 03:42:59 10° 41° (NE) 1,662 10.1 -14.0°
Maximum altitude 03:45:48 22° 94° (E) 1,111 9.3 -13.6°
Drops below altitude 10° 03:48:39 10° 146° (SE) 1,669 9.6 -13.1°
Sets 03:51:04 0° 162° (SSE) 2,552 10.3 -12.7°
